Flag for Brazil Weather past 2 weeks in Barra do Garças, Mato Grosso, Brazil

77 °F

Passing clouds.

Feels Like: 79 °F
Forecast: 73 / 96 °F
Wind: 6 mph from Southeast

Location: Goiania Aeroporto

Current Time: Nov 30, 2015 at 9:20:23 PM

Latest Report: Nov 30, 2015 at 9:00 PM

Visibility: N/A

Pressure: 30.04 "Hg

Humidity: 69%

Dew point: 66 °F

Location of Barra do GarçasLocation

Historic Weather in Barra do Garças — Graph


Barra do Garças temperature yesterday

Maximum temperature yesterday: 88 °F (at 2:00 PM)
Minimum temperature yesterday: 72 °F (at 1:00 AM)
Average temperature yesterday: 78 °F

Past Weeks' High & Low Weather Summary

High91 °F (Nov 22, 3:00 PM)100% (Nov 24, 7:00 PM)30.21 "Hg (Nov 24, 7:00 PM)
Low32 °F (Nov 24, 7:00 PM)21% (Nov 27, 7:00 PM)29.74 "Hg (Nov 23, 5:00 PM)
Average77 °F69%29.94 "Hg
* Reported Nov 15 7:00 PM — Nov 30 7:00 PM, Barra do Garças, Weather by CustomWeather, © 2015

Note: Actual official high and low records may vary slightly from our data, if they occured in-between our weather recording intervals... More about our weather records


Barra do Garças weather history for previous 24 hours

Time TempWeatherWind HumidityBarometerVisibility
7:00 PM
Mon, Nov 30
79 °FPartly sunny.9 mph65%30.01 "HgN/A
6:00 PM82 °FPartly sunny.2 mph55%29.95 "HgN/A
5:00 PM82 °FLight rain. Partly sunny.6 mph55%N/AN/A
4:00 PM90 °FScattered showers. Scattered clouds.12 mph33%29.95 "HgN/A
3:00 PM91 °FScattered clouds.2 mph34%29.95 "HgN/A
2:00 PM88 °FScattered clouds.6 mph43%29.98 "HgN/A
1:00 PM88 °FScattered clouds.6 mph40%30.01 "HgN/A
12:00 PM88 °FScattered showers. Partly sunny.5 mph49%30.07 "HgN/A
11:00 AM82 °FPassing clouds.6 mph58%30.07 "HgN/A
10:00 AM81 °FPassing clouds.2 mph62%30.09 "HgN/A
9:00 AM77 °FPassing clouds.2 mph74%30.09 "HgN/A
8:00 AM77 °FPassing clouds.No wind69%30.07 "HgN/A
7:00 AM75 °FSunny.3 mph78%30.07 "Hg10 mi
6:00 AM73 °FPassing clouds.5 mph83%30.07 "HgN/A
5:00 AM73 °FPartly cloudy.2 mph83%30.04 "HgN/A
4:00 AM72 °FPartly cloudy.5 mph88%30.04 "HgN/A
3:00 AM73 °FPassing clouds.3 mph83%30.04 "HgN/A
2:00 AM73 °FThundershowers. Passing clouds.8 mph83%N/AN/A
1:00 AM73 °FThundershowers. Passing clouds.5 mph83%N/AN/A
12:00 AM73 °FThundershowers. Passing clouds.6 mph83%N/AN/A
11:00 PM
Sun, Nov 29
73 °FPassing clouds.7 mph83%30.07 "HgN/A
10:00 PM73 °FPassing clouds.9 mph83%30.07 "HgN/A
9:00 PM75 °FPassing clouds.10 mph74%30.04 "HgN/A
Weather by CustomWeather, © 2015

See weather overviewHow to use our weather pages